Wind_Speed
6 6 6 6 7 8 9 10 11 13 14 15 16 17 17 18 18 19 20 21 21 21 22 22 22 22 23 23 23 23 22 22 22 23 22 23 23 24 24 25 26 27 27
5 5 6 6 7 8 9 10 11 12 13 15 16 17 18 18 19 20 21 21 21 21 22 22 22 22 23 23 24 24 23 23 24 24 24 25 25 25 25 26 28 28 29
6 6 7 7 8 9 10 11 11 12 13 14 16 17 18 18 19 20 20 21 21 20 21 21 21 22 22 24 24 24 25 25 25 26 26 27 27 27 28 29 29 30 32
8 7 8 8 8 9 10 11 12 13 13 15 15 17 18 19 19 19 18 19 20 21 20 21 22 22 23 23 24 25 25 25 26 26 26 27 28 29 30 31 32 33 34
8 8 9 9 9 9 10 10 11 11 12 13 14 15 16 17 18 18 18 18 19 20 21 22 22 23 23 24 25 25 25 26 27 27 28 29 30 31 33 34 35 36 37
10 10 10 10 10 10 10 10 11 12 12 13 14 15 16 17 18 18 19 20 21 22 22 23 23 24 25 25 25 26 26 27 28 29 30 31 32 34 34 36 37 38 40
12 12 12 12 12 12 12 12 12 13 13 14 14 15 16 17 18 19 20 20 21 21 22 23 23 24 25 26 27 27 28 29 30 31 32 32 34 35 36 38 39 40 41
14 14 14 15 15 14 14 14 14 14 15 14 15 16 18 19 19 19 21 21 21 22 23 23 24 25 25 26 26 27 28 29 31 31 32 34 35 36 38 39 41 43 44
17 17 17 17 16 16 16 16 16 16 16 16 16 17 17 18 18 20 21 21 22 23 24 25 25 26 27 28 28 28 30 31 33 34 34 35 37 39 40 42 43 45 46
19 19 19 18 18 17 17 17 17 17 17 18 18 19 19 19 20 20 20 21 23 24 25 26 26 27 28 28 29 31 32 33 34 35 36 37 39 41 42 44 45 47 47
21 21 20 20 19 19 19 19 19 19 19 20 20 20 21 21 22 22 22 23 24 25 26 27 27 28 28 29 31 31 32 33 35 36 37 39 41 42 44 45 46 46 47
23 23 22 22 21 21 21 21 21 21 21 21 21 22 22 22 22 23 24 25 25 26 26 27 27 28 28 30 31 31 33 35 37 38 39 41 42 43 43 43 44 45 46
24 24 24 23 23 23 23 22 22 22 22 22 22 22 23 22 23 24 25 25 25 25 26 26 27 28 29 31 32 33 35 36 37 38 40 41 41 42 42 42 44 45 46
25 25 25 24 24 23 23 23 23 23 23 23 23 23 23 24 24 25 25 26 26 27 27 27 29 30 31 33 34 34 36 37 38 38 39 40 40 41 42 43 44 45 46
25 25 24 24 24 23 23 23 23 23 23 23 23 23 24 24 25 25 25 26 26 27 27 29 30 30 31 33 34 36 37 37 38 38 39 39 40 41 42 42 43 43 44
26 25 24 24 24 24 23 23 23 23 23 24 24 25 25 25 25 26 25 25 26 27 29 30 31 31 33 33 34 35 35 36 37 38 38 39 40 40 40 41 41 42 42
26 26 25 24 24 24 23 23 23 23 23 23 24 25 25 25 26 26 25 26 27 28 29 30 31 31 32 33 33 34 35 36 37 37 38 38 38 38 39 39 40 40 40
26 25 25 24 24 24 23 22 22 22 23 24 24 24 24 24 25 25 25 26 27 28 29 30 30 30 31 32 33 34 35 36 36 37 36 36 36 36 37 37 37 36 36
26 25 24 24 23 23 22 22 22 22 23 24 23 23 23 23 24 25 26 27 28 28 29 29 29 30 31 33 33 33 34 35 35 35 34 34 34 35 34 34 33 33 33
26 25 24 23 22 21 21 22 22 23 23 23 23 23 23 23 23 24 25 26 27 27 27 28 29 30 31 32 32 33 33 33 33 32 32 32 32 31 31 30 30 30 30
25 24 23 22 21 21 21 21 22 22 22 22 23 23 23 23 24 24 25 25 25 25 26 27 29 29 30 30 30 31 31 31 30 30 30 29 28 28 27 27 27 27 28
23 22 22 21 21 20 20 21 21 21 21 22 22 22 23 23 23 24 24 25 25 26 27 27 28 29 29 29 28 28 28 28 28 28 27 27 26 25 25 25 26 26 27
22 22 22 21 20 20 20 20 21 20 20 21 21 22 22 22 22 23 23 24 25 25 26 26 27 27 26 26 26 26 26 26 26 26 25 24 23 23 24 24 24 25 25
21 21 20 20 20 20 20 20 20 20 21 21 22 21 21 22 22 22 23 23 23 24 24 24 24 25 24 24 25 25 25 25 25 24 23 22 22 22 22 23 23 23 24
20 19 19 19 19 19 19 19 19 20 20 20 20 20 21 21 22 22 22 22 23 24 24 24 24 24 24 24 24 24 24 24 23 23 22 21 21 21 21 22 22 23 24
18 19 19 19 19 19 19 19 19 20 20 20 20 21 21 22 22 22 22 23 23 24 24 24 24 24 24 24 24 24 23 23 22 21 21 20 20 20 21 21 22 23 23
Wind_Direction
295 282 276 272 261 261 256 250 251 250 249 250 249 245 247 248 250 252 253 253 254 255 256 256 255 257 259 260 261 263 265 266 267 269 270 271 272 274 274 276 278 280 280
297 293 286 282 272 266 262 260 259 256 253 252 251 250 250 252 252 253 254 254 254 256 259 259 259 259 260 260 262 264 266 268 269 270 271 271 272 274 276 277 279 280 282
308 298 295 291 285 280 273 268 267 262 256 254 253 254 255 256 256 258 258 255 254 257 259 259 259 260 262 262 263 264 266 268 270 270 271 271 272 274 276 278 279 280 282
316 311 306 302 296 288 281 277 272 265 257 255 256 257 257 257 259 260 260 258 257 257 260 260 260 262 263 264 265 267 269 270 271 271 272 273 274 276 277 278 280 281 283
309 310 309 308 305 298 289 284 280 272 266 263 261 259 260 259 259 260 261 261 261 261 262 264 265 266 264 266 268 269 271 271 273 275 275 274 277 278 279 281 282 283 284
300 300 302 304 306 303 295 286 288 283 274 268 263 264 264 262 260 261 263 262 263 264 264 265 268 270 269 269 269 269 272 273 275 277 277 277 278 279 281 283 284 285 286
293 295 296 297 300 299 295 293 292 287 284 276 272 271 269 266 267 265 265 265 265 266 266 266 270 273 274 274 273 273 272 274 275 278 279 279 280 281 282 283 285 286 286
291 292 292 292 292 293 293 291 290 287 283 281 276 274 273 271 268 267 268 268 268 269 268 269 273 276 276 277 276 275 274 276 279 281 282 282 282 282 284 285 286 287 287
290 289 289 290 291 290 289 288 286 286 284 281 279 278 275 272 270 269 269 270 272 272 272 273 275 276 278 278 276 276 277 280 281 281 282 283 284 284 285 286 287 288 288
288 288 289 288 287 287 288 286 285 284 284 282 279 277 275 273 273 274 273 273 274 274 274 274 276 278 279 279 278 278 280 282 282 283 284 285 286 286 287 288 289 290 289
288 289 288 287 284 284 285 284 283 283 282 281 279 278 275 274 273 272 271 272 275 275 276 277 279 280 280 281 281 282 283 284 285 287 287 287 287 289 290 291 291 291 289
287 286 286 285 283 282 283 282 281 281 282 281 278 277 277 275 274 275 274 274 276 277 278 279 280 281 281 281 282 283 285 285 286 287 288 288 288 290 291 291 292 292 292
284 283 284 284 283 282 282 281 282 282 282 282 279 278 277 278 279 279 279 279 277 277 279 282 282 282 282 283 284 286 286 287 288 288 289 290 291 292 292 292 293 293 294
284 283 282 282 282 281 280 279 280 281 281 281 280 279 278 278 280 281 280 281 281 281 282 283 283 283 284 285 287 288 289 291 292 292 293 293 293 293 294 294 294 295 296
283 282 282 281 281 280 279 279 278 278 278 278 279 279 280 280 282 283 283 282 282 284 283 284 285 286 288 290 290 291 292 293 294 294 295 295 295 296 296 297 297 298 299
281 280 281 280 280 280 279 278 276 276 276 278 280 279 280 281 282 283 285 285 285 285 285 286 287 288 290 292 293 294 295 296 296 297 296 297 297 298 299 299 300 301 302
280 280 279 278 279 278 277 275 275 276 275 277 279 279 281 281 281 283 284 285 285 285 286 288 289 291 292 293 294 296 296 297 298 298 299 300 300 301 302 303 304 304 305
279 279 278 278 278 277 276 275 275 276 277 277 279 281 282 281 282 283 284 285 286 287 288 290 291 292 293 294 295 296 297 298 299 300 301 302 304 305 305 306 307 308 308
277 277 277 276 276 274 275 276 276 277 278 279 280 281 283 283 283 284 285 287 288 290 291 291 292 294 295 296 297 298 299 300 301 302 304 305 307 308 309 309 310 311 312
274 275 274 274 273 274 276 277 277 278 279 280 280 282 284 285 286 287 288 290 291 292 292 292 293 294 296 298 300 301 301 302 304 305 307 309 310 311 312 313 314 316 317
271 272 272 273 273 275 277 279 279 279 279 281 280 282 284 286 288 288 290 291 292 293 293 295 296 297 299 300 301 302 303 305 307 308 310 312 313 314 315 317 319 321 323
267 267 270 272 273 273 274 277 279 279 280 281 283 285 286 288 288 289 290 290 292 293 295 297 298 298 300 301 302 304 306 308 309 311 312 314 315 316 317 319 322 324 326
267 268 270 271 272 273 273 276 279 280 282 284 286 287 288 289 290 290 291 292 294 295 296 297 298 299 301 304 306 308 309 310 312 314 315 316 317 318 319 322 325 327 329
266 267 268 269 270 271 273 277 279 280 283 284 286 287 289 290 289 290 291 293 295 296 296 297 299 302 304 307 309 309 310 312 314 315 315 316 318 320 322 324 327 329 331
264 265 266 267 270 272 274 276 279 280 282 284 286 287 288 289 290 290 291 293 295 297 299 300 302 304 305 307 308 309 310 312 314 314 315 316 318 320 323 325 327 329 332
266 267 266 266 268 272 274 278 281 283 285 286 286 287 288 289 290 291 292 294 297 298 300 301 303 303 305 306 307 309 311 312 313 313 314 316 318 320 322 324 327 329 331
Height
5857 5856 5856 5856 5856 5856 5856 5856 5857 5857 5858 5859 5860 5861 5862 5862 5863 5863 5864 5865 5865 5866 5866 5867 5867 5868 5869 5869 5869 5869 5869 5869 5869 5868 5867 5866 5866 5864 5863 5862 5860 5859 5857
5855 5855 5854 5854 5854 5854 5854 5854 5854 5854 5855 5855 5856 5857 5857 5858 5858 5858 5859 5859 5860 5860 5861 5861 5862 5862 5863 5863 5863 5863 5863 5863 5862 5862 5861 5860 5859 5857 5856 5855 5853 5851 5850
5854 5854 5853 5852 5852 5851 5851 5851 5850 5851 5851 5851 5852 5852 5853 5853 5854 5854 5854 5854 5854 5855 5855 5856 5856 5856 5857 5857 5857 5856 5856 5856 5856 5855 5854 5853 5851 5850 5849 5847 5845 5843 5841
5853 5852 5851 5851 5850 5849 5848 5848 5848 5847 5847 5847 5848 5848 5848 5849 5849 5849 5849 5849 5849 5850 5850 5850 5850 5850 5851 5850 5850 5850 5850 5849 5848 5847 5846 5845 5844 5842 5840 5839 5837 5834 5832
5852 5851 5850 5849 5848 5847 5846 5845 5845 5844 5844 5844 5844 5844 5844 5844 5844 5844 5844 5845 5845 5845 5845 5845 5844 5844 5844 5844 5844 5843 5843 5842 5841 5840 5838 5837 5836 5834 5832 5830 5827 5824 5822
5850 5849 5848 5847 5846 5845 5843 5843 5842 5841 5840 5840 5839 5840 5840 5840 5840 5839 5839 5839 5839 5839 5839 5839 5838 5838 5838 5837 5836 5836 5835 5835 5833 5832 5831 5829 5827 5825 5823 5820 5818 5815 5812
5847 5846 5845 5844 5844 5842 5841 5840 5839 5838 5837 5836 5836 5835 5835 5835 5835 5834 5834 5834 5834 5833 5833 5833 5832 5832 5831 5830 5829 5828 5828 5827 5826 5824 5822 5820 5818 5816 5813 5810 5807 5804 5801
5844 5843 5842 5841 5840 5839 5838 5837 5836 5835 5834 5833 5832 5831 5831 5830 5830 5829 5828 5828 5828 5827 5827 5826 5826 5825 5824 5823 5822 5821 5820 5818 5817 5815 5813 5811 5808 5806 5803 5800 5797 5793 5789
5839 5838 5838 5837 5836 5834 5834 5833 5832 5830 5829 5828 5827 5826 5826 5825 5824 5824 5823 5822 5821 5821 5820 5820 5819 5818 5817 5816 5815 5813 5812 5810 5808 5806 5804 5801 5798 5795 5792 5789 5785 5781 5777
5834 5833 5833 5832 5831 5829 5828 5827 5826 5825 5824 5823 5823 5822 5821 5820 5819 5818 5817 5817 5816 5814 5814 5813 5812 5811 5810 5808 5807 5805 5803 5801 5799 5796 5794 5791 5788 5784 5781 5777 5773 5769 5764
5829 5828 5827 5826 5825 5824 5823 5822 5821 5820 5819 5818 5817 5816 5815 5815 5813 5812 5811 5810 5809 5808 5807 5806 5805 5803 5802 5800 5798 5796 5794 5792 5789 5786 5784 5780 5777 5773 5769 5765 5760 5756 5751
5823 5821 5820 5820 5819 5818 5817 5816 5815 5814 5813 5812 5811 5810 5809 5808 5807 5806 5805 5804 5803 5801 5800 5798 5797 5795 5794 5792 5789 5787 5784 5782 5779 5776 5773 5769 5765 5761 5757 5752 5747 5742 5738
5816 5815 5814 5813 5812 5811 5811 5810 5808 5807 5806 5805 5804 5803 5803 5802 5801 5800 5798 5797 5795 5794 5792 5791 5789 5787 5785 5783 5781 5778 5775 5772 5769 5765 5762 5758 5753 5749 5744 5740 5735 5730 5724
5809 5808 5807 5806 5806 5805 5804 5803 5802 5801 5800 5799 5798 5797 5796 5795 5794 5793 5791 5789 5788 5786 5784 5783 5781 5779 5777 5774 5772 5769 5766 5762 5758 5755 5751 5746 5742 5737 5733 5728 5723 5717 5712
5801 5800 5800 5799 5798 5797 5797 5796 5795 5794 5793 5792 5791 5790 5789 5788 5787 5785 5784 5782 5780 5778 5776 5775 5773 5770 5768 5765 5762 5759 5756 5752 5748 5744 5740 5736 5731 5726 5721 5716 5711 5706 5700
5794 5793 5793 5792 5791 5790 5789 5788 5787 5787 5786 5785 5784 5783 5782 5780 5779 5777 5775 5774 5772 5770 5769 5766 5764 5761 5759 5756 5753 5749 5746 5742 5738 5734 5729 5725 5720 5715 5710 5705 5700 5695 5689
5786 5786 5785 5784 5784 5783 5782 5781 5780 5780 5779 5778 5777 5776 5774 5773 5771 5769 5768 5766 5764 5762 5760 5758 5756 5753 5750 5747 5744 5740 5736 5733 5728 5724 5719 5714 5710 5705 5700 5695 5689 5684 5678
5779 5778 5778 5777 5776 5775 5775 5774 5773 5773 5772 5771 5769 5768 5767 5765 5764 5762 5760 5758 5756 5755 5752 5750 5747 5744 5742 5738 5735 5731 5727 5723 5719 5714 5709 5705 5700 5695 5690 5685 5680 5675 5669
5772 5771 5770 5770 5769 5768 5768 5767 5766 5765 5765 5763 5762 5761 5759 5758 5756 5754 5752 5750 5748 5746 5744 5741 5739 5736 5733 5729 5726 5722 5718 5714 5709 5705 5701 5696 5691 5686 5682 5677 5672 5667 5661
5764 5763 5763 5762 5762 5761 5761 5760 5759 5758 5757 5756 5755 5754 5752 5750 5749 5747 5745 5742 5740 5738 5735 5733 5730 5727 5724 5721 5717 5713 5709 5705 5701 5697 5692 5688 5683 5679 5674 5669 5665 5660 5654
5756 5756 5756 5755 5755 5754 5754 5753 5752 5751 5750 5749 5748 5746 5745 5743 5741 5739 5737 5735 5732 5730 5728 5725 5722 5719 5716 5712 5709 5705 5701 5697 5693 5689 5685 5681 5676 5672 5668 5663 5658 5654 5649
5749 5749 5749 5749 5748 5748 5747 5746 5745 5744 5743 5742 5740 5739 5737 5736 5734 5732 5730 5727 5725 5722 5720 5717 5714 5711 5708 5705 5701 5697 5694 5690 5686 5682 5678 5674 5670 5666 5662 5658 5653 5648 5643
5742 5742 5742 5742 5742 5741 5741 5740 5739 5737 5736 5735 5733 5732 5730 5728 5726 5724 5722 5720 5718 5715 5712 5709 5707 5704 5701 5697 5694 5690 5687 5683 5680 5676 5672 5668 5664 5661 5657 5652 5648 5643 5639
5736 5735 5735 5735 5735 5735 5734 5733 5732 5731 5729 5728 5726 5725 5723 5721 5719 5717 5715 5713 5710 5708 5705 5702 5699 5697 5694 5691 5687 5684 5681 5677 5674 5670 5666 5663 5659 5656 5652 5648 5643 5639 5634
5729 5729 5729 5729 5729 5728 5727 5727 5726 5724 5723 5721 5720 5718 5716 5715 5713 5711 5708 5706 5704 5701 5698 5696 5693 5690 5687 5684 5681 5678 5675 5671 5668 5664 5661 5658 5654 5651 5647 5643 5639 5635 5630
5723 5723 5723 5722 5722 5722 5721 5720 5719 5717 5716 5714 5713 5711 5710 5708 5706 5704 5702 5699 5697 5695 5692 5689 5687 5684 5681 5678 5675 5672 5669 5666 5662 5659 5656 5653 5650 5646 5643 5639 5635 5631 5627